Location: Härggis
(46.9540°N, 8.4897°E)
Time: 21:50:53
(UTC+00:00)

Cosmos 2181 Rocket - Pass Details

Date: 27 May 2022
Orbit: 952 x 1015 km, 82.9° (Epoch: 03 July)

Event Time Altitude Azimuth Distance (km) Brightness Sun altitude
Exits shadow 02:25:50 - 181° (S) 3,392 6.4 -10.3°
Reaches altitude 10° 02:27:37 10° 180° (S) 2,718 5.9 -10.1°
Maximum altitude 02:33:49 77° 96° (E) 997 4.2 -9.4°
Drops below altitude 10° 02:39:59 10° 11° (NNE) 2,701 7.3 -8.7°
Sets 02:42:28 0° 11° (N) 3,646 8.0 -8.3°
